SOYUZ-MS 09 (43493 NORAD) Tracking and Keplerian Element Data

This shows tracking and keplerian element data for the satellite.

Feedback or suggestion? Click here.




ElementValue
Catalog43493
NameSOYUZ-MS 09
Epoch Orbit14734
Epoch Day353.56192024
Epoch Year2018
RAAN174.9001
Inclination51.6401
Eccentricity0.0004999
Argument of Perigee160.4989
Mean Anonmoly299.0086
Mean Motion15.54077441
Decay Rate1.19E-06
L11 43493U 18051A 18353.56192024 .00000119 00000-0 90778-5 0 9994
L22 43493 51.6401 174.9001 0004999 160.4989 299.0086 15.54077441147343

Live tracking and technical data element details for SOYUZ-MS 09 (NORAD 43493). SOYUZ-MS 09 can be tracked NOW for your location showing map with azimuth and elevation plus other details from your city location.

Track the satellite on the map from your city or location and see movement details for azimuth, elevation, latitude, longitude, range, height, and movement on the map or in text.







IsCatalogInMostPopularTable: catalog: 43493, numindb: 135
Update: records affected: 1



GetName: 43493 SOYUZ-MS 09

Hit Count: updated at: Thu, 25 Apr 2019 19:54:10 GMT